| time (UTC) | temp F | wind direction | speed knots | gust knots | rain 1hr in | rain 24hr in | rain mn in | humidity % | barometer mb |
| 20260505122536 | 55 | 134 | 0.0 | 0.0 | 0.00 | 0.00 | 0.00 | 90 | 1015.0 |
| 20260505122033 | 55 | 135 | 0.0 | 0.0 | 0.00 | 0.00 | 0.00 | 90 | 1015.1 |
| 20260505121529 | 55 | 162 | 0.9 | 0.9 | 0.00 | 0.00 | 0.00 | 91 | 1015.0 |
| 20260505121026 | 55 | 223 | 0.9 | 2.6 | 0.00 | 0.00 | 0.00 | 91 | 1015.0 |
| 20260505120522 | 55 | 156 | 0.9 | 0.9 | 0.00 | 0.00 | 0.00 | 91 | 1014.9 |
| 20260505120018 | 55 | 144 | 0.0 | 0.0 | 0.00 | 0.00 | 0.00 | 91 | 1014.7 |
| 20260505115513 | 55 | 144 | 0.0 | 0.0 | 0.00 | 0.00 | 0.00 | 91 | 1014.7 |
| 20260505115011 | 55 | 144 | 0.0 | 0.0 | 0.00 | 0.00 | 0.00 | 91 | 1014.9 |
| 20260505114508 | 55 | 143 | 0.0 | 0.0 | 0.00 | 0.00 | 0.00 | 91 | 1014.9 |
| 20260505114004 | 55 | 132 | 0.0 | 0.0 | 0.00 | 0.00 | 0.00 | 91 | 1014.9 |
| 20260505113501 | 55 | 132 | 0.0 | 0.0 | 0.00 | 0.00 | 0.00 | 91 | 1014.7 |
| 20260505112956 | 55 | 140 | 0.0 | 0.0 | 0.00 | 0.00 | 0.00 | 91 | 1014.8 |
| 20260505112453 | 55 | 134 | 0.0 | 0.0 | 0.00 | 0.00 | 0.00 | 91 | 1014.8 |
| 20260505111950 | 55 | 144 | 0.0 | 0.0 | 0.00 | 0.00 | 0.00 | 91 | 1014.5 |
| 20260505111444 | 55 | 149 | 0.0 | 0.9 | 0.00 | 0.00 | 0.00 | 91 | 1014.8 |
| 20260505110941 | 55 | 144 | 0.0 | 0.0 | 0.00 | 0.00 | 0.00 | 91 | 1014.7 |
| 20260505110438 | 55 | 142 | 0.0 | 0.0 | 0.00 | 0.00 | 0.00 | 92 | 1014.6 |
| 20260505101908 | 54 | 157 | 0.0 | 0.0 | 0.00 | 0.00 | 0.00 | 92 | 1014.2 |
| 20260505101403 | 54 | 143 | 0.0 | 0.0 | 0.00 | 0.00 | 0.00 | 92 | 1014.3 |
| 20260505100859 | 54 | 143 | 0.0 | 0.0 | 0.00 | 0.00 | 0.00 | 92 | 1014.4 |
| 20260505100356 | 54 | 143 | 0.0 | 0.0 | 0.00 | 0.00 | 0.00 | 92 | 1014.2 |
| 20260505095852 | 54 | 143 | 0.0 | 0.0 | 0.00 | 0.00 | 0.00 | 92 | 1014.0 |
| 20260505095350 | 54 | 143 | 0.0 | 0.0 | 0.00 | 0.00 | 0.00 | 92 | 1014.1 |
| 20260505094845 | 54 | 142 | 0.0 | 0.0 | 0.00 | 0.00 | 0.00 | 92 | 1014.2 |
| 20260505094342 | 55 | 143 | 0.0 | 0.0 | 0.00 | 0.00 | 0.00 | 92 | 1014.1 |
| 20260505093838 | 55 | 143 | 0.0 | 0.0 | 0.00 | 0.00 | 0.00 | 92 | 1014.0 |
| 20260505093336 | 55 | 143 | 0.0 | 0.0 | 0.00 | 0.00 | 0.00 | 91 | 1013.9 |
| 20260505092833 | 55 | 143 | 0.0 | 0.0 | 0.00 | 0.00 | 0.00 | 91 | 1013.9 |
| 20260505092331 | 55 | 143 | 0.0 | 0.0 | 0.00 | 0.00 | 0.00 | 91 | 1013.7 |
| 20260505091828 | 55 | 143 | 0.0 | 0.0 | 0.00 | 0.00 | 0.00 | 91 | 1013.9 |
| 20260505091326 | 55 | 143 | 0.0 | 0.0 | 0.00 | 0.00 | 0.00 | 91 | 1013.6 |
| 20260505090824 | 55 | 143 | 0.0 | 0.0 | 0.00 | 0.00 | 0.00 | 91 | 1013.9 |
| 20260505090322 | 55 | 125 | 0.0 | 0.0 | 0.00 | 0.00 | 0.00 | 91 | 1013.8 |
| 20260505085818 | 55 | 125 | 0.0 | 0.0 | 0.00 | 0.00 | 0.00 | 90 | 1013.5 |
| 20260505085317 | 55 | 127 | 0.0 | 0.0 | 0.00 | 0.00 | 0.00 | 90 | 1013.7 |
| 20260505084814 | 56 | 127 | 0.0 | 0.0 | 0.00 | 0.00 | 0.00 | 90 | 1013.3 |
| 20260505084312 | 56 | 127 | 0.0 | 0.0 | 0.00 | 0.00 | 0.00 | 90 | 1013.8 |
| 20260505083809 | 56 | 127 | 0.0 | 0.0 | 0.00 | 0.00 | 0.00 | 89 | 1013.4 |
| 20260505083306 | 56 | 127 | 0.0 | 0.0 | 0.00 | 0.00 | 0.00 | 89 | 1013.5 |
| 20260505082803 | 56 | 127 | 0.0 | 0.0 | 0.00 | 0.00 | 0.00 | 89 | 1013.4 |
| 20260505082259 | 57 | 127 | 0.0 | 0.0 | 0.00 | 0.00 | 0.00 | 89 | 1013.5 |
| 20260505081755 | 57 | 144 | 0.0 | 0.0 | 0.00 | 0.00 | 0.00 | 89 | 1013.5 |
| 20260505081252 | 57 | 143 | 0.0 | 0.0 | 0.00 | 0.00 | 0.00 | 89 | 1013.4 |
| 20260505080749 | 57 | 144 | 0.0 | 0.0 | 0.00 | 0.00 | 0.00 | 89 | 1013.4 |
| 20260505080245 | 57 | 144 | 0.0 | 0.0 | 0.00 | 0.00 | 0.00 | 88 | 1013.2 |
| 20260505075740 | 57 | 142 | 0.0 | 0.0 | 0.00 | 0.00 | 0.00 | 88 | 1013.3 |
| 20260505075238 | 57 | 131 | 0.0 | 0.0 | 0.00 | 0.00 | 0.00 | 88 | 1013.3 |
| 20260505074735 | 57 | 149 | 0.9 | 0.9 | 0.00 | 0.00 | 0.00 | 88 | 1013.3 |
| 20260505074233 | 57 | 125 | 0.0 | 0.0 | 0.00 | 0.00 | 0.00 | 89 | 1013.1 |
| 20260505073730 | 57 | 210 | 0.0 | 0.0 | 0.00 | 0.00 | 0.00 | 89 | 1013.2 |
| 20260505073227 | 57 | 210 | 0.0 | 0.0 | 0.00 | 0.00 | 0.00 | 89 | 1013.0 |
| 20260505072724 | 57 | 210 | 0.0 | 0.0 | 0.00 | 0.00 | 0.00 | 89 | 1013.1 |
| 20260505072220 | 57 | 210 | 0.0 | 0.0 | 0.00 | 0.00 | 0.00 | 88 | 1013.0 |
| 20260505071715 | 57 | 210 | 0.0 | 0.0 | 0.00 | 0.00 | 0.00 | 88 | 1012.7 |
| 20260505071213 | 57 | 210 | 0.0 | 0.0 | 0.00 | 0.00 | 0.00 | 88 | 1012.8 |
| 20260505070710 | 57 | 210 | 0.0 | 0.0 | 0.00 | 0.00 | 0.00 | 88 | 1012.7 |
| 20260505070206 | 57 | 210 | 0.0 | 0.0 | 0.00 | 0.00 | 0.00 | 87 | 1012.9 |
| 20260505065702 | 57 | 210 | 0.0 | 0.0 | 0.00 | 0.00 | 0.00 | 87 | 1012.7 |
| 20260505065159 | 57 | 210 | 0.0 | 0.0 | 0.00 | 0.00 | 0.00 | 87 | 1012.6 |
| 20260505064656 | 57 | 210 | 0.0 | 0.0 | 0.00 | 0.00 | 0.00 | 86 | 1012.6 |
| 20260505064154 | 58 | 210 | 0.0 | 0.0 | 0.00 | 0.00 | 0.00 | 86 | 1012.7 |
| 20260505063652 | 58 | 210 | 0.0 | 0.0 | 0.00 | 0.00 | 0.00 | 86 | 1012.4 |
| 20260505063148 | 58 | 210 | 0.0 | 0.0 | 0.00 | 0.00 | 0.00 | 86 | 1012.5 |
| 20260505062644 | 58 | 210 | 0.0 | 0.0 | 0.00 | 0.00 | 0.00 | 86 | 1012.4 |
| 20260505062142 | 58 | 210 | 0.0 | 0.0 | 0.00 | 0.00 | 0.00 | 86 | 1012.1 |
| 20260505061639 | 58 | 210 | 0.0 | 0.0 | 0.00 | 0.00 | 0.00 | 86 | 1012.1 |
| 20260505061137 | 58 | 210 | 0.0 | 0.0 | 0.00 | 0.00 | 0.00 | 86 | 1012.4 |
| 20260505060634 | 58 | 210 | 0.0 | 0.0 | 0.00 | 0.00 | 0.00 | 86 | 1012.2 |
| 20260505060130 | 59 | 210 | 0.0 | 0.0 | 0.00 | 0.00 | 0.00 | 85 | 1012.1 |
| 20260505055626 | 59 | 210 | 0.0 | 0.0 | 0.00 | 0.00 | 0.00 | 85 | 1012.2 |
| 20260505055123 | 59 | 210 | 0.0 | 0.0 | 0.00 | 0.00 | 0.00 | 85 | 1012.1 |
| 20260505054620 | 59 | 210 | 0.0 | 0.0 | 0.00 | 0.00 | 0.00 | 85 | 1012.2 |
| 20260505054118 | 59 | 210 | 0.0 | 0.0 | 0.00 | 0.00 | 0.00 | 85 | 1012.1 |
| 20260505053615 | 59 | 210 | 0.0 | 0.0 | 0.00 | 0.00 | 0.00 | 85 | 1012.1 |
| 20260505053111 | 59 | 210 | 0.0 | 0.0 | 0.00 | 0.00 | 0.00 | 84 | 1012.2 |
| 20260505052608 | 60 | 210 | 0.0 | 0.0 | 0.00 | 0.00 | 0.00 | 84 | 1011.8 |
| 20260505052106 | 60 | 210 | 0.0 | 0.0 | 0.00 | 0.00 | 0.00 | 84 | 1011.9 |
| 20260505051603 | 60 | 210 | 0.0 | 0.0 | 0.00 | 0.00 | 0.00 | 84 | 1011.9 |
| 20260505051101 | 60 | 210 | 0.0 | 0.0 | 0.00 | 0.00 | 0.00 | 84 | 1011.6 |
| 20260505050558 | 60 | 210 | 0.0 | 0.0 | 0.00 | 0.00 | 0.00 | 84 | 1011.8 |
| 20260505041526 | 62 | 198 | 0.0 | 0.0 | 0.00 | 0.00 | 0.00 | 83 | 1011.0 |
| 20260505041024 | 61 | 199 | 0.0 | 0.0 | 0.00 | 0.00 | 0.00 | 84 | 1010.8 |
| 20260505040521 | 62 | 198 | 0.0 | 0.0 | 0.00 | 0.00 | 0.00 | 84 | 1011.0 |
| 20260505040018 | 63 | 198 | 0.0 | 0.0 | 0.00 | 0.00 | 0.00 | 81 | 1010.9 |
| 20260505035514 | 63 | 198 | 0.0 | 0.0 | 0.00 | 0.00 | 0.00 | 80 | 1010.8 |
| 20260505035011 | 63 | 198 | 0.0 | 0.0 | 0.00 | 0.00 | 0.00 | 80 | 1010.6 |
| 20260505034507 | 63 | 198 | 0.0 | 0.0 | 0.00 | 0.00 | 0.00 | 80 | 1010.5 |
| 20260505034004 | 63 | 198 | 0.0 | 0.0 | 0.00 | 0.00 | 0.00 | 79 | 1010.8 |
| 20260505033501 | 64 | 198 | 0.0 | 0.0 | 0.00 | 0.00 | 0.00 | 79 | 1010.7 |
| 20260505032959 | 64 | 198 | 0.0 | 0.0 | 0.00 | 0.00 | 0.00 | 78 | 1010.4 |
| 20260505032456 | 65 | 198 | 0.0 | 0.0 | 0.00 | 0.00 | 0.00 | 77 | 1010.5 |
| 20260505031953 | 65 | 198 | 0.0 | 0.0 | 0.00 | 0.00 | 0.00 | 77 | 1010.3 |
| 20260505031450 | 65 | 198 | 0.0 | 0.0 | 0.00 | 0.00 | 0.00 | 76 | 1010.6 |
| 20260505030947 | 66 | 198 | 0.0 | 0.0 | 0.00 | 0.00 | 0.00 | 73 | 1010.5 |
| 20260505030443 | 66 | 199 | 0.0 | 0.0 | 0.00 | 0.00 | 0.00 | 70 | 1010.4 |
| 20260505025938 | 67 | 199 | 0.0 | 0.0 | 0.00 | 0.00 | 0.00 | 69 | 1010.3 |
| 20260505025435 | 68 | 199 | 0.0 | 0.0 | 0.00 | 0.00 | 0.00 | 68 | 1010.1 |
| 20260505024934 | 69 | 199 | 0.0 | 0.0 | 0.00 | 0.00 | 0.00 | 67 | 1010.3 |
| 20260505024431 | 69 | 199 | 0.0 | 0.0 | 0.00 | 0.00 | 0.00 | 67 | 1010.3 |
| 20260505023928 | 68 | 199 | 0.0 | 0.0 | 0.00 | 0.00 | 0.00 | 66 | 1010.2 |
| 20260505023425 | 68 | 200 | 0.0 | 0.0 | 0.00 | 0.00 | 0.00 | 65 | 1010.4 |
| 20260505022922 | 68 | 200 | 0.0 | 0.0 | 0.00 | 0.00 | 0.00 | 65 | 1010.2 |
| 20260505022421 | 68 | 200 | 0.0 | 0.0 | 0.00 | 0.00 | 0.00 | 67 | 1010.1 |
| 20260505021917 | 68 | 200 | 0.0 | 0.0 | 0.00 | 0.00 | 0.00 | 66 | 1010.1 |
| 20260505021413 | 70 | 200 | 0.0 | 0.0 | 0.00 | 0.00 | 0.00 | 65 | 1010.3 |
| 20260505020909 | 70 | 199 | 0.9 | 0.9 | 0.00 | 0.00 | 0.00 | 65 | 1010.4 |
| 20260505020405 | 70 | 200 | 0.0 | 0.9 | 0.00 | 0.00 | 0.00 | 67 | 1010.5 |
| 20260505015902 | 69 | 199 | 0.9 | 0.9 | 0.00 | 0.00 | 0.00 | 66 | 1010.2 |
| 20260505015359 | 69 | 166 | 0.0 | 0.9 | 0.00 | 0.00 | 0.00 | 64 | 1010.2 |
| 20260505014856 | 69 | 140 | 0.0 | 0.0 | 0.00 | 0.00 | 0.00 | 65 | 1010.3 |
| 20260505014353 | 71 | 209 | 1.7 | 1.7 | 0.00 | 0.00 | 0.00 | 64 | 1010.3 |
| 20260505013850 | 71 | 159 | 0.0 | 0.0 | 0.00 | 0.00 | 0.00 | 63 | 1010.4 |
| 20260505013347 | 68 | 138 | 0.0 | 0.0 | 0.00 | 0.00 | 0.00 | 66 | 1010.4 |
| 20260505012845 | 68 | 139 | 0.0 | 0.0 | 0.00 | 0.00 | 0.00 | 67 | 1010.5 |
| 20260505012343 | 69 | 140 | 0.0 | 0.0 | 0.00 | 0.00 | 0.00 | 68 | 1010.3 |
| 20260505011839 | 69 | 171 | 0.9 | 0.9 | 0.00 | 0.00 | 0.00 | 67 | 1010.5 |
| 20260505011336 | 68 | 205 | 1.7 | 1.7 | 0.00 | 0.00 | 0.00 | 71 | 1010.5 |
| 20260505010831 | 67 | 180 | 0.9 | 1.7 | 0.00 | 0.00 | 0.00 | 72 | 1010.3 |
| 20260505010327 | 71 | 211 | 2.6 | 2.6 | 0.00 | 0.00 | 0.00 | 69 | 1010.4 |
| 20260505005824 | 71 | 194 | 0.9 | 0.9 | 0.00 | 0.00 | 0.00 | 65 | 1010.4 |
| 20260505005321 | 72 | 180 | 0.9 | 0.9 | 0.00 | 0.00 | 0.00 | 66 | 1010.4 |
| 20260505004819 | 71 | 183 | 0.9 | 0.9 | 0.00 | 0.00 | 0.00 | 68 | 1010.6 |
| 20260505004315 | 70 | 187 | 1.7 | 1.7 | 0.00 | 0.00 | 0.00 | 68 | 1010.4 |
| 20260505003812 | 70 | 130 | 0.0 | 0.0 | 0.00 | 0.00 | 0.00 | 71 | 1010.6 |
| 20260505003309 | 71 | 181 | 0.0 | 0.0 | 0.00 | 0.00 | 0.00 | 72 | 1010.6 |
| 20260505002805 | 69 | 161 | 0.9 | 0.9 | 0.00 | 0.00 | 0.00 | 73 | 1010.6 |
| 20260505002304 | 69 | 219 | 1.7 | 1.7 | 0.00 | 0.00 | 0.00 | 74 | 1010.7 |
| 20260505001801 | 70 | 212 | 2.6 | 2.6 | 0.00 | 0.00 | 0.00 | 71 | 1010.5 |
| 20260505001257 | 72 | 131 | 0.9 | 1.7 | 0.00 | 0.00 | 0.00 | 62 | 1010.3 |
| 20260505000755 | 71 | 124 | 0.0 | 0.0 | 0.00 | 0.00 | 0.00 | 65 | 1010.3 |
| 20260505000252 | 70 | 142 | 0.0 | 0.0 | 0.00 | 0.00 | 0.00 | 67 | 1010.4 |
| 20260504235749 | 72 | 99 | 0.9 | 0.9 | 0.00 | 0.00 | 0.00 | 68 | 1010.4 |
| 20260504235245 | 74 | 141 | 0.0 | 0.0 | 0.00 | 0.00 | 0.00 | 59 | 1010.6 |
| 20260504234742 | 75 | 216 | 2.6 | 2.6 | 0.00 | 0.00 | 0.00 | 56 | 1010.4 |
| 20260504234240 | 76 | 203 | 1.7 | 1.7 | 0.00 | 0.00 | 0.00 | 54 | 1010.5 |
| 20260504233736 | 77 | 208 | 0.9 | 0.9 | 0.00 | 0.00 | 0.00 | 51 | 1010.4 |
| 20260504233232 | 77 | 206 | 0.9 | 0.9 | 0.00 | 0.00 | 0.00 | 53 | 1010.6 |
| 20260504232729 | 76 | 214 | 0.9 | 1.7 | 0.00 | 0.00 | 0.00 | 56 | 1010.5 |
| 20260504232226 | 77 | 195 | 1.7 | 2.6 | 0.00 | 0.00 | 0.00 | 51 | 1010.4 |
| 20260504231722 | 77 | 197 | 0.9 | 0.9 | 0.00 | 0.00 | 0.00 | 51 | 1010.5 |
| 20260504231219 | 77 | 194 | 0.0 | 0.9 | 0.00 | 0.00 | 0.00 | 51 | 1010.6 |
| 20260504230715 | 76 | 167 | 0.9 | 0.9 | 0.00 | 0.00 | 0.00 | 55 | 1010.5 |
| 20260504230214 | 76 | 170 | 0.9 | 0.9 | 0.00 | 0.00 | 0.00 | 53 | 1010.6 |
| 20260504225712 | 74 | 190 | 0.0 | 0.0 | 0.00 | 0.00 | 0.00 | 61 | 1010.7 |
| 20260504225208 | 74 | 143 | 0.9 | 0.9 | 0.00 | 0.00 | 0.00 | 61 | 1010.4 |
| 20260504224705 | 74 | 160 | 0.9 | 1.7 | 0.00 | 0.00 | 0.00 | 56 | 1010.5 |
| 20260504224203 | 73 | 121 | 0.0 | 0.0 | 0.00 | 0.00 | 0.00 | 60 | 1010.7 |
| 20260504223659 | 72 | 151 | 0.9 | 0.9 | 0.00 | 0.00 | 0.00 | 63 | 1010.6 |
| 20260504223155 | 73 | 235 | 2.6 | 2.6 | 0.00 | 0.00 | 0.00 | 60 | 1010.8 |
| 20260504222652 | 72 | 124 | 0.0 | 0.0 | 0.00 | 0.00 | 0.00 | 61 | 1010.7 |
| 20260504222148 | 72 | 225 | 1.7 | 1.7 | 0.00 | 0.00 | 0.00 | 61 | 1010.8 |
| 20260504221646 | 71 | 149 | 0.9 | 0.9 | 0.00 | 0.00 | 0.00 | 63 | 1010.9 |
| 20260504221143 | 72 | 209 | 1.7 | 1.7 | 0.00 | 0.00 | 0.00 | 63 | 1011.1 |
| 20260504220639 | 71 | 149 | 0.9 | 1.7 | 0.00 | 0.00 | 0.00 | 62 | 1011.1 |
| 20260504220137 | 70 | 113 | 0.0 | 0.0 | 0.00 | 0.00 | 0.00 | 60 | 1011.1 |
| 20260504215633 | 69 | 206 | 1.7 | 2.6 | 0.00 | 0.00 | 0.00 | 61 | 1011.4 |
| 20260504215131 | 70 | 105 | 0.9 | 0.9 | 0.00 | 0.00 | 0.00 | 58 | 1011.3 |
| 20260504214626 | 70 | 105 | 0.0 | 0.0 | 0.00 | 0.00 | 0.00 | 57 | 1011.3 |
| 20260504214123 | 71 | 114 | 0.0 | 0.0 | 0.00 | 0.00 | 0.00 | 55 | 1011.2 |
| 20260504213619 | 71 | 125 | 0.0 | 0.0 | 0.00 | 0.00 | 0.00 | 56 | 1011.2 |
| 20260504213116 | 71 | 153 | 0.9 | 1.7 | 0.00 | 0.00 | 0.00 | 55 | 1011.3 |
| 20260504212612 | 71 | 128 | 0.0 | 0.0 | 0.00 | 0.00 | 0.00 | 55 | 1011.3 |
| 20260504212110 | 70 | 108 | 0.0 | 0.0 | 0.00 | 0.00 | 0.00 | 56 | 1011.3 |
| 20260504211607 | 71 | 138 | 0.0 | 0.0 | 0.00 | 0.00 | 0.00 | 53 | 1011.3 |
| 20260504211103 | 71 | 126 | 0.0 | 0.0 | 0.00 | 0.00 | 0.00 | 55 | 1011.5 |
| 20260504210601 | 71 | 208 | 1.7 | 1.7 | 0.00 | 0.00 | 0.00 | 54 | 1011.6 |
| 20260504210057 | 70 | 191 | 2.6 | 4.3 | 0.00 | 0.00 | 0.00 | 55 | 1011.4 |
| 20260504205555 | 70 | 197 | 2.6 | 2.6 | 0.00 | 0.00 | 0.00 | 57 | 1011.7 |
| 20260504205052 | 70 | 141 | 0.9 | 0.9 | 0.00 | 0.00 | 0.00 | 57 | 1011.6 |
| 20260504204550 | 69 | 220 | 2.6 | 2.6 | 0.00 | 0.00 | 0.00 | 56 | 1011.7 |
| 20260504204049 | 70 | 233 | 2.6 | 2.6 | 0.00 | 0.00 | 0.00 | 58 | 1011.5 |
| 20260504203547 | 69 | 228 | 2.6 | 2.6 | 0.00 | 0.00 | 0.00 | 55 | 1011.6 |
| 20260504203044 | 69 | 173 | 1.7 | 1.7 | 0.00 | 0.00 | 0.00 | 60 | 1011.6 |
| 20260504202539 | 69 | 190 | 1.7 | 1.7 | 0.00 | 0.00 | 0.00 | 61 | 1011.7 |
| 20260504202037 | 68 | 179 | 1.7 | 1.7 | 0.00 | 0.00 | 0.00 | 60 | 1011.7 |
| 20260504201533 | 68 | 207 | 1.7 | 1.7 | 0.00 | 0.00 | 0.00 | 64 | 1011.8 |
| 20260504201032 | 68 | 169 | 1.7 | 1.7 | 0.00 | 0.00 | 0.00 | 61 | 1011.8 |
| 20260504200527 | 68 | 201 | 1.7 | 1.7 | 0.00 | 0.00 | 0.00 | 61 | 1011.9 |
| 20260504200024 | 67 | 193 | 1.7 | 1.7 | 0.00 | 0.00 | 0.00 | 65 | 1011.7 |
| 20260504195520 | 67 | 200 | 1.7 | 1.7 | 0.00 | 0.00 | 0.00 | 63 | 1011.8 |
| 20260504195017 | 67 | 178 | 0.9 | 1.7 | 0.00 | 0.00 | 0.00 | 65 | 1011.7 |
| 20260504194514 | 67 | 218 | 1.7 | 1.7 | 0.00 | 0.00 | 0.00 | 65 | 1011.6 |
| 20260504194009 | 67 | 176 | 0.9 | 1.7 | 0.00 | 0.00 | 0.00 | 63 | 1011.8 |
| 20260504193506 | 67 | 193 | 1.7 | 1.7 | 0.00 | 0.00 | 0.00 | 63 | 1011.8 |
| 20260504193005 | 67 | 204 | 0.9 | 1.7 | 0.00 | 0.00 | 0.00 | 62 | 1011.7 |
| 20260504192503 | 66 | 168 | 0.9 | 0.9 | 0.00 | 0.00 | 0.00 | 61 | 1011.8 |
| 20260504192001 | 66 | 157 | 1.7 | 1.7 | 0.00 | 0.00 | 0.00 | 62 | 1011.9 |
| 20260504191458 | 66 | 209 | 1.7 | 1.7 | 0.00 | 0.00 | 0.00 | 64 | 1012.0 |
| 20260504190954 | 66 | 181 | 0.9 | 1.7 | 0.00 | 0.00 | 0.00 | 63 | 1011.8 |
| 20260504190449 | 66 | 199 | 1.7 | 1.7 | 0.00 | 0.00 | 0.00 | 63 | 1011.8 |
| 20260504185946 | 67 | 167 | 0.9 | 0.9 | 0.00 | 0.00 | 0.00 | 63 | 1011.7 |
| 20260504185444 | 67 | 202 | 1.7 | 1.7 | 0.00 | 0.00 | 0.00 | 64 | 1012.0 |
| 20260504184939 | 65 | 169 | 0.0 | 0.9 | 0.00 | 0.00 | 0.00 | 69 | 1012.2 |
| 20260504184435 | 64 | 171 | 0.9 | 1.7 | 0.00 | 0.00 | 0.00 | 71 | 1012.1 |
| 20260504183931 | 64 | 225 | 2.6 | 2.6 | 0.00 | 0.00 | 0.00 | 68 | 1012.1 |
| 20260504183429 | 64 | 146 | 0.0 | 0.0 | 0.00 | 0.00 | 0.00 | 71 | 1012.1 |
| 20260504182927 | 67 | 193 | 1.7 | 1.7 | 0.00 | 0.00 | 0.00 | 68 | 1012.0 |
| 20260504182423 | 67 | 210 | 1.7 | 1.7 | 0.00 | 0.00 | 0.00 | 62 | 1012.0 |
| 20260504181920 | 66 | 191 | 1.7 | 1.7 | 0.00 | 0.00 | 0.00 | 60 | 1012.3 |
| 20260504181418 | 65 | 156 | 0.0 | 0.0 | 0.00 | 0.00 | 0.00 | 65 | 1011.9 |
| 20260504180916 | 65 | 213 | 2.6 | 2.6 | 0.00 | 0.00 | 0.00 | 68 | 1012.3 |
| 20260504180415 | 65 | 148 | 0.0 | 0.0 | 0.00 | 0.00 | 0.00 | 66 | 1012.0 |
| 20260504175913 | 65 | 157 | 0.9 | 0.9 | 0.00 | 0.00 | 0.00 | 66 | 1012.1 |
| 20260504175409 | 64 | 176 | 0.0 | 0.0 | 0.00 | 0.00 | 0.00 | 67 | 1012.0 |
| 20260504174907 | 62 | 177 | 0.9 | 0.9 | 0.00 | 0.00 | 0.00 | 68 | 1012.0 |
| 20260504174404 | 60 | 145 | 0.0 | 0.0 | 0.00 | 0.00 | 0.00 | 74 | 1012.2 |
| 20260504173902 | 59 | 145 | 0.0 | 0.0 | 0.00 | 0.00 | 0.00 | 78 | 1012.1 |
| 20260504173358 | 59 | 145 | 0.0 | 0.0 | 0.00 | 0.00 | 0.00 | 84 | 1012.0 |
| 20260504172855 | 58 | 144 | 0.0 | 0.0 | 0.00 | 0.00 | 0.00 | 85 | 1012.1 |
| 20260504172351 | 57 | 140 | 0.0 | 0.0 | 0.00 | 0.00 | 0.00 | 86 | 1011.9 |
| 20260504171847 | 57 | 132 | 0.0 | 0.0 | 0.00 | 0.00 | 0.00 | 87 | 1012.2 |
| 20260504171345 | 57 | 151 | 0.9 | 0.9 | 0.00 | 0.00 | 0.00 | 86 | 1012.0 |
| 20260504170842 | 56 | 140 | 0.0 | 0.0 | 0.00 | 0.00 | 0.00 | 86 | 1012.1 |
| 20260504170338 | 56 | 144 | 0.0 | 0.0 | 0.00 | 0.00 | 0.00 | 86 | 1012.1 |
| 20260504160257 | 54 | 196 | 0.9 | 0.9 | 0.00 | 0.00 | 0.00 | 91 | 1011.9 |
| 20260504150722 | 54 | 194 | 0.0 | 0.0 | 0.00 | 0.00 | 0.00 | 90 | 1011.5 |
| 20260504150219 | 54 | 194 | 0.0 | 0.0 | 0.00 | 0.00 | 0.00 | 90 | 1011.5 |
| 20260504141148 | 53 | 193 | 0.0 | 0.0 | 0.00 | 0.00 | 0.00 | 89 | 1011.0 |
| 20260504140645 | 53 | 193 | 0.0 | 0.0 | 0.00 | 0.00 | 0.00 | 89 | 1011.1 |
| 20260504140140 | 53 | 193 | 0.0 | 0.0 | 0.00 | 0.00 | 0.00 | 89 | 1011.1 |
| 20260504130609 | 52 | 193 | 0.0 | 0.0 | 0.00 | 0.00 | 0.00 | 88 | 1010.8 |
| 20260504130106 | 52 | 193 | 0.0 | 0.0 | 0.00 | 0.00 | 0.00 | 88 | 1010.8 |